Time,TemperatureF,DewpointF,PressureIn,WindDirection,WindDirectionDegrees,WindSpeedMPH,WindSpeedGustMPH,Humidity,HourlyPrecipIn,Conditions,Clouds,dailyrainin,SoftwareType,DateUTC
2013-08-23 06:40:00,65.0,-99.9,30.20,North,350,8.0,10.0,-999,-99.99,,,-99.99,,2013-08-23 11:40:00,
2013-08-23 07:11:00,65.0,-99.9,30.20,North,350,8.0,10.0,-999,-99.99,,,-99.99,,2013-08-23 12:11:00,
2013-08-23 07:22:00,65.0,-99.9,30.20,North,350,8.0,10.0,-999,-99.99,,,-99.99,,2013-08-23 12:22:00,
2013-08-23 07:32:00,65.0,-99.9,30.20,North,350,8.0,10.0,-999,-99.99,,,-99.99,,2013-08-23 12:32:00,
2013-08-23 07:40:00,65.0,-99.9,30.21,North,350,7.0,9.0,-999,-99.99,,,-99.99,,2013-08-23 12:40:00,
2013-08-23 08:12:00,65.0,-99.9,30.21,North,350,7.0,9.0,-999,-99.99,,,-99.99,,2013-08-23 13:12:00,
2013-08-23 08:22:00,65.0,-99.9,30.21,North,350,7.0,9.0,-999,-99.99,,,-99.99,,2013-08-23 13:22:00,
2013-08-23 08:32:00,65.0,-99.9,30.21,North,350,7.0,9.0,-999,-99.99,,,-99.99,,2013-08-23 13:32:00,
2013-08-23 08:40:00,65.0,-99.9,30.21,North,350,5.0,7.0,-999,-99.99,,,-99.99,,2013-08-23 13:40:00,
2013-08-23 09:12:00,65.0,-99.9,30.21,North,350,5.0,7.0,-999,-99.99,,,-99.99,,2013-08-23 14:12:00,
2013-08-23 09:22:00,65.0,-99.9,30.21,North,350,5.0,7.0,-999,-99.99,,,-99.99,,2013-08-23 14:22:00,
2013-08-23 09:32:00,65.0,-99.9,30.21,North,350,5.0,7.0,-999,-99.99,,,-99.99,,2013-08-23 14:32:00,
2013-08-23 09:40:00,67.0,-99.9,30.22,NNW,330,3.0,6.0,-999,-99.99,,,-99.99,,2013-08-23 14:40:00,
2013-08-23 10:12:00,67.0,-99.9,30.22,NNW,330,3.0,6.0,-999,-99.99,,,-99.99,,2013-08-23 15:12:00,
2013-08-23 10:22:00,67.0,-99.9,30.22,NNW,330,3.0,6.0,-999,-99.99,,,-99.99,,2013-08-23 15:22:00,
2013-08-23 10:33:00,67.0,-99.9,30.22,NNW,330,3.0,6.0,-999,-99.99,,,-99.99,,2013-08-23 15:33:00,
2013-08-23 10:40:00,67.0,-99.9,30.22,East,90,5.0,6.0,-999,-99.99,,,-99.99,,2013-08-23 15:40:00,
2013-08-23 11:14:00,67.0,-99.9,30.22,East,90,5.0,6.0,-999,-99.99,,,-99.99,,2013-08-23 16:14:00,
2013-08-23 11:24:00,67.0,-99.9,30.22,East,90,5.0,6.0,-999,-99.99,,,-99.99,,2013-08-23 16:24:00,
2013-08-23 11:34:00,67.0,-99.9,30.22,East,90,5.0,6.0,-999,-99.99,,,-99.99,,2013-08-23 16:34:00,
2013-08-23 11:40:00,68.0,-99.9,30.22,East,100,6.0,7.0,-999,-99.99,,,-99.99,,2013-08-23 16:40:00,
2013-08-23 12:13:00,68.0,-99.9,30.22,East,100,6.0,7.0,-999,-99.99,,,-99.99,,2013-08-23 17:13:00,
2013-08-23 12:24:00,68.0,-99.9,30.22,East,100,6.0,7.0,-999,-99.99,,,-99.99,,2013-08-23 17:24:00,
2013-08-23 12:34:00,68.0,-99.9,30.22,East,100,6.0,7.0,-999,-99.99,,,-99.99,,2013-08-23 17:34:00,
2013-08-23 12:40:00,66.0,-99.9,30.21,ESE,110,6.0,7.0,-999,-99.99,,,-99.99,,2013-08-23 17:40:00,
2013-08-23 13:12:00,66.0,-99.9,30.21,ESE,110,6.0,7.0,-999,-99.99,,,-99.99,,2013-08-23 18:12:00,
2013-08-23 13:22:00,66.0,-99.9,30.21,ESE,110,6.0,7.0,-999,-99.99,,,-99.99,,2013-08-23 18:22:00,
2013-08-23 13:32:00,66.0,-99.9,30.21,ESE,110,6.0,7.0,-999,-99.99,,,-99.99,,2013-08-23 18:32:00,
2013-08-23 13:40:00,66.0,-99.9,30.21,ESE,110,7.0,9.0,-999,-99.99,,,-99.99,,2013-08-23 18:40:00,
2013-08-23 14:12:00,66.0,-99.9,30.21,ESE,110,7.0,9.0,-999,-99.99,,,-99.99,,2013-08-23 19:12:00,
2013-08-23 14:22:00,66.0,-99.9,30.21,ESE,110,7.0,9.0,-999,-99.99,,,-99.99,,2013-08-23 19:22:00,
2013-08-23 14:32:00,66.0,-99.9,30.21,ESE,110,7.0,9.0,-999,-99.99,,,-99.99,,2013-08-23 19:32:00,
2013-08-23 14:40:00,68.0,-99.9,30.19,East,100,7.0,9.0,-999,-99.99,,,-99.99,,2013-08-23 19:40:00,
2013-08-23 15:12:00,68.0,-99.9,30.19,East,100,7.0,9.0,-999,-99.99,,,-99.99,,2013-08-23 20:12:00,
2013-08-23 15:22:00,68.0,-99.9,30.19,East,100,7.0,9.0,-999,-99.99,,,-99.99,,2013-08-23 20:22:00,
2013-08-23 15:32:00,68.0,-99.9,30.19,East,100,7.0,9.0,-999,-99.99,,,-99.99,,2013-08-23 20:32:00,
2013-08-23 15:40:00,68.0,-99.9,30.17,ESE,110,7.0,8.0,-999,-99.99,,,-99.99,,2013-08-23 20:40:00,
2013-08-23 16:12:00,68.0,-99.9,30.17,ESE,110,7.0,8.0,-999,-99.99,,,-99.99,,2013-08-23 21:12:00,
2013-08-23 16:22:00,68.0,-99.9,30.17,ESE,110,7.0,8.0,-999,-99.99,,,-99.99,,2013-08-23 21:22:00,
2013-08-23 16:34:00,68.0,-99.9,30.17,ESE,110,7.0,8.0,-999,-99.99,,,-99.99,,2013-08-23 21:34:00,
2013-08-23 16:40:00,68.0,-99.9,30.17,ESE,110,6.0,7.0,-999,-99.99,,,-99.99,,2013-08-23 21:40:00,
2013-08-23 17:13:00,68.0,-99.9,30.17,ESE,110,6.0,7.0,-999,-99.99,,,-99.99,,2013-08-23 22:13:00,
2013-08-23 17:24:00,68.0,-99.9,30.17,ESE,110,6.0,7.0,-999,-99.99,,,-99.99,,2013-08-23 22:24:00,
2013-08-23 17:33:00,68.0,-99.9,30.17,ESE,110,6.0,7.0,-999,-99.99,,,-99.99,,2013-08-23 22:33:00,
2013-08-23 17:40:00,69.0,-99.9,30.17,SE,130,5.0,6.0,-999,-99.99,,,-99.99,,2013-08-23 22:40:00,
2013-08-23 18:12:00,69.0,-99.9,30.17,SE,130,5.0,6.0,-999,-99.99,,,-99.99,,2013-08-23 23:12:00,
2013-08-23 18:22:00,69.0,-99.9,30.17,SE,130,5.0,6.0,-999,-99.99,,,-99.99,,2013-08-23 23:22:00,
2013-08-23 18:33:00,69.0,-99.9,30.17,SE,130,5.0,6.0,-999,-99.99,,,-99.99,,2013-08-23 23:33:00,
2013-08-23 18:40:00,68.0,-99.9,30.16,SSE,160,3.0,3.0,-999,-99.99,,,-99.99,,2013-08-23 23:40:00,
2013-08-23 19:11:00,68.0,-99.9,30.16,SSE,160,3.0,3.0,-999,-99.99,,,-99.99,,2013-08-24 00:11:00,
2013-08-23 19:22:00,68.0,-99.9,30.16,SSE,160,3.0,3.0,-999,-99.99,,,-99.99,,2013-08-24 00:22:00,
2013-08-23 19:32:00,68.0,-99.9,30.16,SSE,160,3.0,3.0,-999,-99.99,,,-99.99,,2013-08-24 00:32:00,
2013-08-23 19:40:00,66.0,-99.9,30.16,SSE,160,3.0,5.0,-999,-99.99,,,-99.99,,2013-08-24 00:40:00,
2013-08-23 20:11:00,66.0,-99.9,30.16,SSE,160,3.0,5.0,-999,-99.99,,,-99.99,,2013-08-24 01:11:00,
2013-08-23 20:22:00,66.0,-99.9,30.16,SSE,160,3.0,5.0,-999,-99.99,,,-99.99,,2013-08-24 01:22:00,
2013-08-23 20:32:00,66.0,-99.9,30.16,SSE,160,3.0,5.0,-999,-99.99,,,-99.99,,2013-08-24 01:32:00,
2013-08-23 20:40:00,64.0,-99.9,30.17,South,180,2.0,5.0,-999,-99.99,,,-99.99,,2013-08-24 01:40:00,
2013-08-23 21:12:00,64.0,-99.9,30.17,South,180,2.0,5.0,-999,-99.99,,,-99.99,,2013-08-24 02:12:00,
2013-08-23 21:22:00,64.0,-99.9,30.17,South,180,2.0,5.0,-999,-99.99,,,-99.99,,2013-08-24 02:22:00,
2013-08-23 21:32:00,64.0,-99.9,30.17,South,180,2.0,5.0,-999,-99.99,,,-99.99,,2013-08-24 02:32:00,
2013-08-23 21:40:00,64.0,-99.9,30.18,South,170,5.0,6.0,-999,-99.99,,,-99.99,,2013-08-24 02:40:00,
2013-08-23 22:12:00,64.0,-99.9,30.18,South,170,5.0,6.0,-999,-99.99,,,-99.99,,2013-08-24 03:12:00,
2013-08-23 22:22:00,64.0,-99.9,30.18,South,170,5.0,6.0,-999,-99.99,,,-99.99,,2013-08-24 03:22:00,
2013-08-23 22:34:00,64.0,-99.9,30.18,South,170,5.0,6.0,-999,-99.99,,,-99.99,,2013-08-24 03:34:00,
2013-08-23 22:40:00,65.0,-99.9,30.17,SSE,150,6.0,8.0,-999,-99.99,,,-99.99,,2013-08-24 03:40:00,
2013-08-23 23:14:00,65.0,-99.9,30.17,SSE,150,6.0,8.0,-999,-99.99,,,-99.99,,2013-08-24 04:14:00,
2013-08-23 23:24:00,65.0,-99.9,30.17,SSE,150,6.0,8.0,-999,-99.99,,,-99.99,,2013-08-24 04:24:00,
2013-08-23 23:34:00,65.0,-99.9,30.17,SSE,150,6.0,8.0,-999,-99.99,,,-99.99,,2013-08-24 04:34:00,
2013-08-23 23:40:00,65.0,-99.9,30.18,South,170,6.0,8.0,-999,-99.99,,,-99.99,,2013-08-24 04:40:00,